INMARSAT 3-F2 1 24307U 96053A 09006.76618063 -.00000104 00000-0 10000-3 0 6392 2 24307 000.0697 320.2607 0005656 322.0590 084.4648 01.00271461 45176 INMARSAT 3-F3 1 24674U 96070A 09006.23014267 .00000060 00000-0 10000-3 0 6060 2 24674 000.0836 014.3285 0005781 271.0809 081.4451 01.00272587 44129 INMARSAT 3-F4 1 24819U 97027A 09006.03427035 -.00000237 00000-0 10000-3 0 3731 2 24819 000.1070 040.4373 0004445 250.6646 132.3343 01.00838006 42541 INMARSAT 3-F5 1 25153U 98006B 09004.76916808 .00000164 00000-0 00000+0 0 3654 2 25153 000.4609 357.9100 0004530 284.4256 124.0582 01.00275212 40034 ARTEMIS 1 26863U 01029A 09004.85515145 .00000144 00000-0 10000-3 0 6130 2 26863 007.0468 071.4209 0003691 236.9176 125.4691 01.00274193 28519 MTSAT-1R 1 28622U 05006A 09005.14101446 -.00000258 00000-0 10000-3 0 9468 2 28622 000.0485 108.7266 0002594 032.8501 154.0998 01.00269254 14110 ANIK F1-R 1 28868U 05036A 09006.48434981 -.00000054 00000-0 10000-3 0 6128 2 28868 000.0114 326.4824 0001971 281.3974 285.3750 01.00272074 12276 GALAXY 15 1 28884U 05041A 09006.41106453 .00000099 00000-0 10000-3 0 5504 2 28884 000.0105 339.3917 0002577 311.1467 190.5566 01.00273214 11865 MTSAT-2 1 28937U 06004A 09004.66580593 -.00000220 00000-0 10000-3 0 5146 2 28937 000.0488 074.0999 0002228 199.5644 215.4367 01.00270199 10593